Temperature
8 8 8 8 8 8 8 9 9 9 9 9 9 10 10 10 10 10 10 10 10 10 10 10 10 10 10 10 11 11 11 11 11 11 11 11 11 10 10 10 10 10 10
8 8 8 8 8 8 8 8 8 8 9 9 9 9 9 9 9 10 10 10 10 10 10 10 10 10 10 10 10 10 10 10 10 10 10 10 10 10 10 10 10 10 10
7 7 7 7 7 7 7 7 7 7 8 8 8 8 9 9 9 9 9 10 10 10 10 10 10 10 10 10 10 10 10 10 10 10 10 10 10 10 10 10 10 9 9
6 7 7 7 6 6 6 6 7 7 7 7 8 8 8 8 9 9 9 9 9 9 9 9 9 9 9 9 9 9 9 10 10 9 9 10 10 10 9 9 9 9 9
6 6 6 6 6 6 6 6 6 6 7 7 7 7 8 8 8 8 9 9 9 9 9 9 9 9 9 9 9 9 9 9 9 9 9 9 9 9 9 9 9 9 9
5 5 5 5 5 5 5 5 5 5 6 6 6 7 7 7 7 8 8 8 8 9 9 9 9 9 9 9 9 9 9 9 9 9 9 9 9 9 9 9 9 9 9
5 5 5 5 5 5 5 5 5 5 5 5 6 6 6 7 7 7 8 8 8 8 8 8 8 9 9 9 8 8 8 8 8 8 8 8 8 8 8 8 8 9 9
4 4 4 4 4 4 4 4 4 4 4 4 4 5 5 5 6 6 7 7 7 8 8 8 8 8 8 8 8 8 8 8 8 8 8 8 8 8 8 8 8 8 8
4 4 4 4 4 4 4 4 4 4 4 4 4 4 4 4 4 5 6 6 7 7 7 7 8 8 8 7 8 8 7 7 7 8 8 7 7 8 7 7 8 8 8
3 3 3 3 3 3 3 3 3 3 3 3 4 4 4 4 4 4 5 6 6 6 6 7 7 7 7 7 7 7 7 7 7 7 7 7 7 7 7 7 7 7 7
2 2 2 3 2 2 2 2 3 3 3 3 3 3 3 4 4 4 4 4 5 6 6 6 6 7 7 7 7 7 7 7 7 7 7 7 7 7 7 7 7 7 7
2 2 2 2 2 2 2 2 2 2 2 2 2 3 3 3 3 4 3 4 4 5 5 5 6 6 6 6 6 6 6 6 6 6 6 6 6 6 7 6 6 6 7
1 1 1 1 1 1 1 1 2 2 2 2 2 2 2 3 3 3 3 3 3 4 4 5 5 5 5 6 6 6 6 6 6 6 6 6 6 6 6 6 6 6 6
0 1 1 1 1 1 1 1 1 1 1 1 1 2 2 2 2 2 3 3 2 3 3 4 4 5 5 5 5 5 5 5 5 6 6 6 6 6 6 6 6 6 6
-0 -0 -0 0 0 0 0 0 0 0 0 1 1 1 1 1 2 2 2 2 2 2 3 3 4 4 4 4 5 5 5 5 5 5 5 5 5 5 5 5 5 5 5
-1 -1 -1 -1 -1 -0 -0 -0 -0 -0 -0 0 0 0 1 1 1 1 1 1 2 2 2 3 3 4 4 4 4 4 4 4 5 5 5 5 5 5 5 5 5 5 5
-2 -2 -2 -1 -1 -1 -1 -1 -1 -1 -1 -0 -0 -0 0 0 0 0 0 1 1 1 2 2 2 3 3 3 3 3 4 4 4 4 4 4 4 4 4 4 4 4 4
-2 -2 -2 -2 -2 -2 -1 -1 -1 -1 -1 -1 -1 -1 -0 -0 -0 -0 -0 0 1 1 1 1 2 2 2 3 3 3 3 3 3 4 4 4 4 4 3 3 4 4 3
-3 -3 -3 -3 -2 -2 -2 -2 -2 -2 -2 -1 -1 -1 -1 -1 -1 -1 -0 -0 -0 0 0 1 1 1 1 2 2 2 2 2 3 3 3 3 3 3 3 3 3 3 3
-4 -3 -3 -3 -3 -3 -3 -3 -2 -2 -2 -2 -2 -2 -1 -1 -1 -1 -1 -1 -1 -1 -0 -0 0 1 1 1 1 1 1 1 2 2 2 2 2 2 2 2 2 2 2
-4 -4 -4 -4 -4 -3 -3 -3 -3 -3 -3 -2 -2 -2 -2 -2 -2 -2 -2 -1 -1 -1 -1 -1 -1 -0 -0 0 0 0 0 1 1 1 1 2 2 2 2 2 2 2 1
-5 -5 -5 -4 -4 -4 -4 -4 -4 -4 -3 -3 -3 -3 -3 -2 -2 -2 -2 -2 -2 -2 -2 -1 -1 -1 -1 -0 -0 -0 -0 -0 -0 0 1 1 1 1 1 1 1 1 1
-5 -5 -5 -5 -5 -4 -4 -4 -4 -4 -4 -4 -4 -4 -3 -3 -3 -3 -2 -2 -2 -2 -2 -2 -2 -1 -1 -1 -1 -1 -1 -1 -1 -1 -1 -0 0 -0 0 0 0 0 0
-6 -6 -6 -5 -5 -5 -5 -5 -5 -5 -5 -4 -4 -4 -4 -4 -3 -3 -3 -3 -3 -3 -2 -2 -2 -2 -2 -1 -1 -1 -2 -2 -2 -1 -2 -1 -1 -1 -0 -0 -0 -0 0
-6 -6 -6 -6 -6 -5 -5 -5 -5 -5 -5 -5 -5 -5 -5 -4 -4 -4 -4 -4 -3 -3 -3 -3 -3 -2 -2 -2 -2 -3 -2 -3 -2 -2 -2 -2 -2 -1 -1 -1 -1 -1 -1
-7 -7 -6 -6 -6 -6 -6 -6 -6 -6 -6 -6 -5 -5 -5 -5 -5 -4 -4 -4 -4 -3 -3 -3 -3 -3 -3 -3 -3 -3 -3 -3 -3 -3 -2 -3 -2 -2 -2 -1 -1 -1 -1
Wind_Speed
2 3 2 3 4 4 3 3 4 4 4 4 4 3 4 4 4 3 3 4 5 6 7 7 7 8 9 10 10 10 9 9 8 8 8 7 7 7 8 8 8 8 8
2 2 2 2 3 3 2 3 3 3 2 3 3 3 3 3 3 3 3 2 4 6 7 7 8 9 9 9 10 10 9 9 8 7 7 7 7 7 7 7 7 7 7
2 2 1 1 1 2 2 3 3 3 2 2 2 2 2 3 3 3 3 2 1 3 6 6 6 8 9 9 10 10 10 9 9 8 7 7 6 6 6 7 7 7 7
1 1 1 0 0 1 2 2 1 1 1 1 1 1 1 2 2 2 2 2 2 2 4 5 4 7 8 8 8 9 9 9 8 8 7 7 6 6 6 7 6 6 6
1 1 1 0 0 2 2 1 0 0 0 1 1 1 1 1 1 2 2 2 2 2 3 4 3 4 6 7 7 8 9 9 8 7 7 7 7 6 6 6 6 6 6
1 1 1 1 1 1 0 0 0 0 1 0 0 1 1 1 0 1 1 1 2 2 3 3 3 4 5 6 7 7 8 9 8 8 7 7 7 6 6 6 6 5 5
1 1 1 1 0 1 1 1 1 0 0 0 1 1 2 1 0 0 1 1 2 2 3 4 3 3 3 4 6 7 7 8 8 8 7 6 6 6 6 6 6 5 4
0 1 1 0 1 1 1 1 2 1 1 1 1 1 0 1 2 1 1 1 1 2 2 3 4 4 3 3 4 6 7 8 8 8 7 7 7 6 5 6 6 5 5
1 1 1 1 1 1 2 2 2 2 2 2 1 2 2 2 1 2 1 1 0 1 1 2 4 4 4 3 3 5 6 7 8 8 8 8 7 7 6 5 5 5 4
2 2 2 2 1 1 2 3 2 2 3 3 1 1 1 2 2 1 2 1 1 1 2 2 3 4 5 4 4 4 5 6 7 8 8 8 8 7 7 6 5 4 4
2 3 3 3 2 2 2 3 2 2 2 3 3 2 1 1 1 2 2 2 2 2 2 2 2 3 5 5 5 5 5 6 7 7 8 8 7 7 6 6 5 4 4
2 3 3 3 3 2 3 3 3 3 3 3 3 3 3 2 2 2 2 2 3 3 2 2 2 3 4 5 5 6 6 7 7 7 8 8 7 7 6 6 6 5 4
3 3 3 3 3 3 4 3 3 3 3 3 4 3 3 3 2 2 2 2 2 2 2 2 2 3 4 4 4 6 6 7 7 7 7 7 7 7 6 6 6 5 5
4 4 4 4 4 5 4 3 3 4 3 4 4 4 3 3 3 3 3 3 2 3 3 4 2 2 3 3 4 5 5 7 7 8 8 7 7 7 6 6 6 5 5
4 4 4 4 4 5 5 4 4 4 4 4 4 4 4 3 3 3 3 3 4 4 5 4 2 2 2 3 4 4 4 6 7 7 8 8 7 7 7 6 6 6 5
4 4 4 4 5 5 5 4 4 4 5 5 4 4 4 3 3 3 3 3 4 5 5 4 3 2 2 3 4 3 4 6 7 7 7 8 8 8 7 7 7 6 5
4 5 5 5 5 5 5 5 5 5 6 5 5 5 5 5 4 4 4 4 4 4 5 4 2 2 2 3 3 2 3 4 5 7 7 7 8 8 8 7 7 7 6
5 5 5 6 6 5 5 6 6 6 6 7 6 6 6 5 5 5 4 5 4 4 4 5 3 2 3 3 3 2 2 3 4 6 7 7 7 8 8 7 7 7 7
5 5 5 6 6 6 5 6 6 6 6 7 6 7 6 6 6 5 5 5 4 4 3 4 4 3 2 2 2 2 3 2 3 5 7 7 7 7 8 8 8 8 8
4 4 5 5 5 6 6 6 5 6 6 6 6 7 7 7 8 7 6 6 5 4 4 4 4 3 3 3 3 3 3 2 3 4 5 6 7 7 8 8 9 9 9
4 4 4 4 4 5 6 6 6 6 6 6 6 6 7 8 9 8 7 6 6 5 5 5 5 4 4 4 4 3 4 2 3 3 3 4 4 5 7 8 8 9 10
4 4 4 4 4 5 7 8 6 5 6 6 7 7 7 8 10 11 11 10 9 8 7 7 6 6 6 5 4 4 4 3 3 2 2 4 4 4 5 7 8 9 10
4 4 4 4 5 6 8 8 7 5 5 6 7 6 6 7 8 6 8 10 10 12 11 9 8 9 7 6 5 6 5 5 5 3 2 4 4 5 5 7 9 10 10
4 4 5 4 5 6 8 8 8 5 5 6 6 7 7 7 7 7 6 6 7 8 9 9 8 8 7 7 7 6 4 3 3 3 3 4 4 4 4 6 8 9 9
3 4 4 4 4 6 8 8 7 4 5 6 6 6 7 8 10 10 7 7 7 7 9 11 11 10 10 9 7 4 4 4 4 4 3 3 3 3 3 4 7 9 9
3 4 4 3 4 5 7 7 7 4 5 5 5 6 9 9 11 11 8 7 8 7 6 5 7 7 8 8 9 8 7 6 4 4 4 3 3 1 2 3 4 5 6
Wind_Direction
82 70 62 48 33 37 47 47 46 45 44 44 57 75 71 66 60 63 101 151 166 172 174 173 172 166 163 157 150 146 144 139 134 130 126 123 124 125 124 121 116 112 108
91 91 80 61 34 29 42 56 62 57 49 56 49 68 83 76 69 62 65 104 162 175 181 180 177 171 166 165 160 156 154 151 147 143 138 135 133 133 134 130 126 121 116
84 95 92 78 36 24 41 59 65 62 57 45 29 46 71 77 77 65 62 62 111 163 176 181 181 176 170 166 164 163 159 157 152 149 146 148 147 143 141 139 133 128 122
69 80 97 39 17 81 81 80 83 40 18 11 358 1 44 71 82 91 88 84 89 120 149 162 171 175 171 171 166 162 159 159 161 161 159 157 154 152 145 144 141 136 128
60 54 96 60 84 107 103 93 69 128 75 14 341 346 17 54 97 100 94 103 108 130 142 153 165 167 172 174 174 170 162 159 160 162 164 165 160 157 150 145 147 145 140
88 65 68 46 101 129 136 129 156 46 180 188 69 27 349 321 93 112 142 121 124 134 144 150 155 177 183 183 183 177 172 169 168 166 163 166 169 164 161 157 154 152 150
111 97 69 27 43 218 206 185 180 143 258 115 86 56 7 346 234 202 153 139 137 147 144 151 150 153 176 193 191 183 183 180 176 173 171 170 166 170 174 174 168 163 159
194 164 114 272 280 240 210 200 176 204 241 186 150 134 95 337 349 305 253 200 200 139 138 164 155 152 163 173 194 191 193 193 188 183 181 181 179 180 176 179 178 175 170
236 211 207 217 236 223 214 215 203 190 208 239 204 170 167 205 260 307 299 251 249 200 182 168 167 171 175 177 191 192 196 203 201 195 193 192 190 188 191 190 181 175 174
243 215 210 218 227 226 229 224 219 222 200 219 232 231 210 166 175 219 289 297 290 244 235 214 180 175 178 177 185 191 193 197 199 200 199 198 198 200 203 200 193 191 190
247 225 214 210 224 233 234 233 229 218 216 220 221 214 211 243 204 188 226 264 294 270 250 235 204 175 177 175 182 193 194 194 197 202 201 197 194 197 200 202 205 203 202
262 241 226 215 225 234 236 234 228 219 223 227 230 222 205 201 201 194 212 236 250 273 278 240 221 202 185 183 185 191 198 199 203 204 205 202 199 200 203 209 215 214 213
265 245 244 226 232 236 237 234 237 231 226 228 228 233 226 221 217 224 216 236 261 271 265 255 227 205 193 186 188 190 197 201 206 209 207 207 203 203 206 210 214 216 220
252 251 240 234 234 233 237 237 245 245 240 234 236 236 240 230 215 224 213 208 248 263 247 243 238 209 199 189 205 197 201 204 210 212 210 206 203 202 205 207 211 215 218
263 257 250 244 238 234 233 235 242 238 241 241 239 234 241 238 223 224 219 210 206 229 239 239 227 221 207 205 218 215 212 212 212 212 208 200 199 200 204 209 211 214 216
260 259 256 249 246 240 236 235 239 237 235 244 244 236 240 242 229 226 224 223 222 219 236 235 239 257 244 248 235 234 226 214 208 208 207 202 200 201 204 208 213 214 213
255 252 255 251 246 243 241 237 237 235 233 239 243 237 238 235 230 226 225 224 225 219 231 257 265 259 248 241 246 242 237 221 218 215 209 208 206 206 208 210 214 214 213
259 257 256 251 250 248 245 240 239 238 232 234 236 235 237 235 231 230 226 227 223 217 215 237 254 247 251 236 225 228 254 238 233 223 215 212 210 211 211 212 216 215 214
261 261 255 250 252 250 247 246 240 239 236 234 233 233 234 231 233 234 233 226 223 225 216 221 245 249 253 235 223 248 252 261 249 230 220 215 214 215 218 223 224 223 219
260 261 260 255 253 254 249 245 241 241 240 238 235 234 233 230 228 227 234 225 216 216 219 220 234 239 243 234 203 216 248 248 264 259 233 224 221 221 226 229 228 227 225
276 270 266 269 264 253 247 245 243 237 239 240 241 242 240 237 230 231 232 221 210 213 214 218 226 235 235 224 213 213 236 252 270 252 224 226 229 235 236 232 230 227 228
285 280 270 271 270 265 265 256 247 238 237 237 242 244 246 242 239 240 240 233 222 215 215 216 226 225 229 230 222 212 217 237 256 241 228 241 229 229 244 235 234 233 233
280 279 278 275 276 274 272 264 250 246 241 238 239 242 249 247 242 240 241 240 237 235 232 222 219 225 224 217 209 216 218 226 248 230 246 254 221 231 246 243 239 235 234
277 275 276 273 275 273 272 268 257 249 249 245 240 239 244 243 239 237 232 236 237 236 237 232 226 227 226 217 209 217 221 232 262 244 223 255 241 234 248 252 239 229 229
283 282 283 277 271 272 273 271 263 248 249 253 251 247 243 237 240 239 232 234 240 244 246 240 234 232 231 230 221 202 207 216 248 250 222 232 245 250 241 237 236 228 231
276 284 288 288 282 279 279 280 267 243 249 254 255 252 248 243 242 239 227 227 236 240 233 234 230 229 228 226 224 215 210 218 234 242 217 212 232 233 249 234 230 233 235
Height
1521 1522 1522 1523 1524 1524 1525 1526 1527 1528 1529 1530 1531 1532 1533 1535 1536 1537 1539 1540 1542 1543 1544 1545 1546 1547 1548 1550 1551 1552 1553 1554 1555 1556 1556 1557 1558 1559 1559 1559 1560 1560 1561
1519 1519 1520 1520 1521 1522 1523 1524 1524 1525 1526 1527 1528 1530 1531 1532 1534 1535 1536 1538 1539 1541 1542 1544 1544 1545 1547 1548 1549 1550 1551 1553 1554 1555 1556 1556 1557 1558 1558 1559 1559 1560 1560
1516 1516 1517 1517 1518 1519 1520 1521 1522 1523 1524 1525 1526 1527 1528 1530 1531 1532 1534 1535 1537 1538 1540 1541 1542 1543 1545 1546 1547 1548 1550 1551 1552 1553 1554 1555 1556 1557 1558 1558 1558 1559 1559
1513 1513 1514 1514 1515 1516 1517 1517 1519 1519 1521 1522 1523 1524 1525 1527 1528 1530 1531 1533 1534 1536 1537 1539 1540 1541 1543 1544 1545 1546 1548 1549 1551 1552 1553 1554 1555 1556 1556 1557 1557 1558 1558
1510 1510 1511 1511 1512 1513 1514 1514 1516 1517 1518 1519 1520 1521 1522 1524 1525 1527 1528 1530 1531 1533 1534 1536 1538 1539 1540 1542 1543 1544 1546 1547 1549 1550 1551 1552 1553 1554 1555 1555 1556 1557 1557
1507 1507 1508 1508 1509 1510 1510 1511 1513 1514 1515 1516 1517 1518 1519 1521 1522 1524 1525 1527 1528 1530 1532 1533 1535 1536 1538 1539 1541 1542 1544 1545 1546 1548 1549 1550 1551 1552 1553 1554 1554 1555 1556
1504 1504 1505 1505 1506 1506 1507 1508 1509 1510 1512 1513 1514 1514 1516 1518 1519 1520 1522 1523 1525 1527 1529 1530 1532 1533 1535 1536 1538 1540 1541 1542 1544 1545 1546 1547 1548 1550 1551 1552 1552 1553 1554
1501 1501 1501 1502 1503 1503 1504 1505 1506 1507 1508 1510 1511 1511 1512 1515 1515 1516 1518 1519 1521 1523 1525 1527 1528 1530 1531 1533 1534 1536 1538 1539 1541 1542 1543 1545 1546 1547 1548 1549 1550 1551 1551
1497 1498 1498 1499 1499 1500 1501 1502 1503 1504 1505 1506 1508 1509 1510 1510 1511 1512 1514 1515 1517 1519 1521 1523 1524 1526 1528 1530 1531 1533 1535 1536 1538 1539 1540 1541 1543 1544 1545 1546 1547 1548 1549
1494 1494 1495 1495 1496 1496 1497 1498 1499 1501 1502 1503 1504 1506 1507 1507 1509 1508 1510 1512 1513 1515 1516 1519 1520 1522 1524 1526 1528 1529 1531 1533 1534 1536 1537 1538 1539 1541 1542 1543 1544 1545 1545
1490 1490 1491 1491 1492 1493 1493 1494 1495 1497 1498 1499 1500 1502 1503 1504 1505 1506 1505 1507 1509 1511 1513 1514 1516 1518 1520 1522 1524 1526 1528 1530 1531 1532 1533 1535 1536 1537 1538 1539 1540 1542 1542
1485 1486 1486 1487 1488 1488 1489 1490 1491 1492 1494 1495 1497 1498 1499 1500 1501 1502 1502 1503 1504 1506 1508 1510 1511 1514 1516 1518 1520 1522 1524 1526 1528 1529 1530 1531 1532 1533 1535 1536 1537 1538 1539
1481 1481 1482 1482 1483 1484 1485 1486 1487 1487 1489 1490 1492 1493 1495 1496 1498 1499 1500 1500 1501 1501 1503 1505 1507 1509 1512 1514 1516 1517 1519 1521 1523 1525 1526 1527 1528 1529 1531 1532 1533 1534 1535
1477 1478 1478 1478 1479 1480 1480 1481 1482 1483 1484 1486 1487 1488 1490 1491 1493 1495 1496 1497 1497 1498 1499 1500 1502 1504 1506 1509 1511 1513 1515 1517 1519 1520 1522 1523 1524 1525 1526 1527 1529 1530 1530
1473 1473 1474 1474 1475 1475 1476 1477 1477 1478 1480 1481 1482 1483 1485 1486 1488 1490 1492 1494 1496 1494 1494 1495 1497 1499 1502 1504 1506 1508 1510 1512 1514 1515 1517 1518 1519 1520 1522 1523 1524 1525 1526
1468 1469 1469 1470 1470 1471 1471 1472 1472 1474 1475 1476 1477 1478 1480 1482 1484 1485 1487 1489 1491 1491 1490 1490 1492 1495 1497 1499 1501 1503 1505 1507 1509 1510 1512 1513 1514 1516 1517 1518 1520 1521 1521
1464 1464 1464 1464 1465 1465 1466 1467 1467 1468 1469 1471 1472 1474 1475 1477 1479 1480 1482 1483 1485 1486 1486 1485 1488 1490 1492 1494 1495 1497 1499 1501 1504 1505 1506 1508 1509 1510 1512 1513 1515 1516 1517
1459 1459 1459 1459 1460 1460 1461 1461 1462 1463 1464 1465 1467 1469 1470 1472 1473 1475 1476 1478 1479 1481 1482 1481 1482 1485 1487 1489 1490 1492 1494 1496 1498 1500 1501 1502 1504 1505 1506 1508 1510 1511 1512
1454 1454 1454 1454 1454 1455 1455 1456 1457 1458 1459 1460 1462 1463 1465 1467 1468 1469 1471 1472 1474 1475 1477 1477 1478 1480 1482 1484 1485 1487 1489 1490 1492 1494 1495 1497 1498 1500 1501 1503 1504 1506 1507
1448 1448 1449 1449 1449 1450 1450 1451 1451 1453 1454 1455 1456 1458 1459 1461 1462 1464 1465 1467 1468 1470 1471 1473 1473 1475 1476 1478 1480 1481 1483 1484 1486 1488 1490 1491 1493 1494 1495 1497 1498 1500 1501
1443 1444 1444 1444 1444 1445 1445 1446 1446 1447 1448 1449 1451 1452 1454 1455 1456 1458 1460 1461 1462 1464 1466 1467 1468 1470 1471 1473 1474 1476 1477 1479 1480 1482 1484 1485 1486 1488 1489 1491 1492 1494 1495
1439 1439 1439 1439 1439 1439 1440 1441 1441 1442 1443 1444 1445 1446 1448 1449 1450 1452 1453 1455 1457 1459 1460 1462 1462 1464 1465 1467 1469 1471 1473 1473 1474 1476 1477 1478 1480 1481 1483 1485 1486 1488 1490
1435 1435 1434 1434 1434 1434 1435 1436 1437 1437 1438 1438 1439 1440 1441 1443 1445 1446 1447 1449 1450 1452 1455 1457 1457 1458 1460 1462 1464 1466 1467 1468 1469 1470 1472 1472 1474 1475 1477 1478 1480 1482 1484
1431 1430 1430 1430 1430 1430 1431 1431 1432 1433 1433 1433 1434 1435 1436 1437 1438 1440 1441 1442 1444 1445 1447 1449 1451 1452 1455 1457 1459 1460 1461 1463 1464 1465 1467 1467 1467 1469 1471 1472 1474 1475 1477
1427 1426 1426 1426 1426 1426 1426 1427 1427 1428 1428 1428 1429 1429 1430 1431 1432 1434 1436 1436 1437 1438 1441 1443 1445 1447 1449 1451 1453 1455 1456 1458 1457 1459 1461 1462 1462 1463 1464 1465 1467 1469 1471
1423 1423 1422 1422 1422 1421 1422 1422 1423 1423 1423 1423 1423 1424 1424 1425 1427 1428 1429 1430 1430 1432 1434 1436 1438 1440 1442 1444 1447 1449 1450 1452 1452 1452 1454 1457 1457 1457 1458 1459 1461 1463 1465